Location: *
(40.7765°S, 106.5327°E)
Time: 15:40:47
(UTC+00:00)

GPS 2-04 Rocket1 - Pass Details

Date: 26 May 2022
Orbit: 404 x 513 km, 35.6° (Epoch: 04 July)

Event Time Altitude Azimuth Distance (km) Brightness Sun altitude
Rises 10:31:11 0° 277° (W) 2,562 8.2 -10.1°
Reaches altitude 10° 10:33:33 10° 286° (WNW) 1,660 6.9 -10.5°
Maximum altitude 10:37:01 34° 352° (N) 794 3.9 -11.1°
Drops below altitude 10° 10:40:20 10° 58° (ENE) 1,593 4.8 -11.7°
Enters shadow 10:40:38 - 60° (ENE) 1,702 4.9 -11.8°
